Weather in Karagas

Russia / Republic of Dagestan     44°15′06″N   45°22′55″E
temp.,
°C
wind,
m/s
gust,
m/s
humid.,
%
clouds,
%
prec.,
mm/h
press.,
hPa
HPBL,
m
11 may, tue
tue1100:00+9wsw476511 0.0 1020143
03:00+7sw227092 0.0 101912
06:00+10ene226123 0.0 102082
09:00+14e61040100 0.0 10181455
12:00+17ese101039100 0.0 10162375
15:00+18ese10103880 0.0 10162101
18:00+15ese710430 0.0 1016874
21:00+12e48610 0.0 1017159
12 may, wed
wed1200:00+10ese33720 0.0 101638
03:00+9e22800 0.0 101610
06:00+11nw12740 0.0 101668
09:00+16ene236428 0.0 1016987
12:00+20e334614 0.0 10161528
15:00+22e33395 0.0 10151729
18:00+21se22430 0.0 1015264
21:00+17ese6106492 0.0 1015256
13 may, thu
thu1300:00+14se35720 0.0 1015104
03:00+13se33750 0.0 101453
06:00+14ese34730 0.0 1015150
09:00+19e44550 0.0 1015631
12:00+24e44420 0.0 1014982
15:00+27e453511 0.0 10131233
18:00+24ene7952100 0.0 1013369
21:00+19e486464 0.0 1015173
14 may, fri
fri1400:00+15ese467293 0.0 1014118
03:00+14e368099 0.0 1014134
06:00+15ese3482100 0.0 1014182
09:00+21ese346197 0.0 1014448
12:00+28ese67435 0.0 1013980
15:00+30ese911314 0.0 10111183
18:00+25ese813410 0.0 1012622
21:00+20ese615480 0.0 1012427
15 may, sat
sat1500:00+19ese614500 0.0 1011369
03:00+17ese49470 0.0 1011184
06:00+18ese38514 0.0 1012256
09:00+24se22495 0.0 1013503
12:00+29se224126 0.1 1012960
15:00+31ese44335 0.2 10121776
18:00+27ese7112895 0.2 1012444
21:00+21ese4644100 0.8 1014117